This is the latest recevied weather packets stored in our database for station/object IZ8QAD-10. If no packets are shown the sender has not sent any weather packets the latest 10 day(s).
| Time | Temp. | Humidity | Pressure | Rain* | Wind** | Luminosity | Snow |
|---|---|---|---|---|---|---|---|
| 1777614724 | 25° C | 38% | 973.4 hPa | - | - | - | - |
| 1777613051 | 25° C | 37% | 973 hPa | - | - | - | - |
| 1777612923 | 25° C | 37% | 973 hPa | - | - | - | - |
| 1777611123 | 25° C | 37% | 972.8 hPa | - | - | - | - |
| 1777609323 | 25.56° C | 37% | 973 hPa | - | - | - | - |
| 1777607523 | 25.56° C | 38% | 972.7 hPa | - | - | - | - |
| 1777605723 | 25.56° C | 38% | 972.8 hPa | - | - | - | - |
| 1777603923 | 25.56° C | 37% | 972.9 hPa | - | - | - | - |
| 1777602122 | 26.11° C | 37% | 972.9 hPa | - | - | - | - |
| 1777600322 | 26.11° C | 36% | 973.1 hPa | - | - | - | - |
| 1777598522 | 26.11° C | 36% | 972.9 hPa | - | - | - | - |
| 1777596722 | 26.67° C | 36% | 973.1 hPa | - | - | - | - |
| 1777594922 | 26.67° C | 36% | 973.1 hPa | - | - | - | - |
| 1777593122 | 27.22° C | 35% | 973 hPa | - | - | - | - |
| 1777591322 | 27.22° C | 36% | 973.2 hPa | - | - | - | - |
| 1777589521 | 27.22° C | 35% | 973.4 hPa | - | - | - | - |
| 1777587721 | 27.22° C | 35% | 973.6 hPa | - | - | - | - |
| 1777585921 | 26.67° C | 34% | 973.7 hPa | - | - | - | - |
| 1777584121 | 27.22° C | 34% | 973.8 hPa | - | - | - | - |
| 1777582321 | 27.22° C | 33% | 973.7 hPa | - | - | - | - |
| 1777580520 | 27.22° C | 32% | 973.7 hPa | - | - | - | - |
| 1777578720 | 27.78° C | 33% | 973.6 hPa | - | - | - | - |
| 1777576920 | 27.22° C | 33% | 973.5 hPa | - | - | - | - |
| 1777575120 | 27.78° C | 34% | 973.1 hPa | - | - | - | - |
| 1777573320 | 27.78° C | 33% | 972.8 hPa | - | - | - | - |
* Rain since midnight (hover to see other rain measurements)
** Current wind speed in m/s (hover to see current wind gust speed)